Algona, IA

4:37 PM CDT on April 20, 2018 (GMT -0500)
Algona Municipal

Weather History for KAXA - January, 2014

Change the Weather History Date:

Monday, January 27, 2014

  Actual Average Record
Temperature  
Mean Temperature -4 °F -  
Max Temperature 0 °F 24 °F 55 °F (2002)
Min Temperature -9 °F 10 °F -13 °F (1997)
Degree Days  
Heating Degree Days 70    
Moisture  
Dew Point -16 °F    
Average Humidity 61    
Maximum Humidity 77    
Minimum Humidity 54    
Precipitation  
Precipitation 0.00 in - - ()
Sea Level Pressure  
Sea Level Pressure 30.34 in    
Wind  
Wind Speed 17 mph (NW)    
Max Wind Speed 26 mph    
Max Gust Speed 38 mph    
Visibility 9 miles    
Events Snow    
Averages and records for this station are not official NWS values.
T = Trace of Precipitation, MM = Missing Value Source: NWS Daily Summary

Daily Weather History Graph

Daily Weather History Graph

Search for Another Location

Airport or City:

Astronomy

Jan. 27, 2014 Rise Set
Actual Time 7:37 AM CST 5:23 PM CST
Civil Twilight 7:06 AM CST 5:53 PM CST
Nautical Twilight 6:32 AM CST 6:27 PM CST
Astronomical Twilight 5:58 AM CST 7:01 PM CST
Moon 4:20 AM CST (1/27) 2:08 PM CST (1/27)
Length of Visible Light 10h 46m
Length of Day
9h 45m
Waning Crescent, 14% of the Moon is Illuminated
Jan 27
Waning Crescent
Jan 30
New
Feb 6
First Quarter
Feb 14
Full
Feb 22
Last Quarter

Hourly Weather History & Observations

Time (CST) Temp. Windchill Dew Point Humidity Pressure Visibility Wind Dir Wind Speed Gust Speed Precip Events Conditions
12:15 AM -4.0 °F -30.0 °F -14.8 °F 60% 30.14 in 4.0 mi NNW 26.5 mph 38.0 mph N/A   Haze
12:35 AM -4.0 °F -28.6 °F -13.0 °F 65% 30.15 in 10.0 mi NNW 23.0 mph 28.8 mph N/A   Mostly Cloudy
12:55 AM -4.0 °F -29.1 °F -13.0 °F 65% 30.16 in 7.0 mi NW 24.2 mph 35.7 mph N/A   Overcast
1:15 AM -4.0 °F -29.1 °F -14.8 °F 60% 30.16 in 5.0 mi NW 24.2 mph 36.8 mph N/A   Haze
1:35 AM -4.0 °F -28.1 °F -14.8 °F 60% 30.18 in 9.0 mi NW 21.9 mph 28.8 mph N/A   Mostly Cloudy
1:55 AM -4.0 °F -26.4 °F -14.8 °F 60% 30.19 in 10.0 mi NW 18.4 mph 25.3 mph N/A   Mostly Cloudy
2:15 AM -4.0 °F -28.6 °F -13.0 °F 65% 30.20 in 4.0 mi NW 23.0 mph 28.8 mph N/A   Haze
2:35 AM -4.0 °F -25.2 °F -16.6 °F 55% 30.21 in 9.0 mi NW 16.1 mph 33.4 mph N/A   Mostly Cloudy
2:55 AM -4.0 °F -28.6 °F -14.8 °F 60% 30.22 in 10.0 mi NNW 23.0 mph 31.1 mph N/A   Mostly Cloudy
3:15 AM -5.8 °F -29.9 °F -16.6 °F 60% 30.23 in 8.0 mi NNW 20.7 mph 28.8 mph N/A   Overcast
3:35 AM -5.8 °F -28.8 °F -16.6 °F 60% 30.24 in 10.0 mi NNW 18.4 mph 31.1 mph N/A   Overcast
3:55 AM -5.8 °F -27.5 °F -14.8 °F 65% 30.24 in 9.0 mi NNW 16.1 mph 23.0 mph N/A   Mostly Cloudy
4:15 AM -5.8 °F -28.2 °F -14.8 °F 65% 30.24 in 7.0 mi NNW 17.3 mph - N/A   Overcast
4:35 AM -5.8 °F -28.2 °F -13.0 °F 71% 30.25 in 2.0 mi NNW 17.3 mph - N/A Snow Light Snow
4:55 AM -5.8 °F -25.2 °F -14.8 °F 65% 30.26 in 6.0 mi NW 12.7 mph 21.9 mph N/A   Haze
5:15 AM -7.6 °F -29.1 °F -16.6 °F 65% 30.26 in 10.0 mi NW 15.0 mph - N/A   Overcast
5:35 AM -7.6 °F -26.6 °F -13.0 °F 77% 30.26 in 2.0 mi NW 11.5 mph 17.3 mph N/A   Haze
5:55 AM -5.8 °F -28.8 °F -14.8 °F 65% 30.27 in 2.5 mi NW 18.4 mph 25.3 mph N/A   Haze
6:15 AM -7.6 °F -31.1 °F -14.8 °F 71% 30.28 in 8.0 mi NW 18.4 mph 26.5 mph N/A   Overcast
6:35 AM -5.8 °F -28.8 °F -13.0 °F 71% 30.28 in 1.2 mi NW 18.4 mph 26.5 mph N/A Snow Light Snow
6:55 AM -7.6 °F -29.1 °F -18.4 °F 59% 30.29 in 10.0 mi NW 15.0 mph 23.0 mph N/A   Scattered Clouds
7:15 AM -7.6 °F -30.5 °F -18.4 °F 59% 30.30 in 10.0 mi NW 17.3 mph - N/A   Mostly Cloudy
7:35 AM -7.6 °F -29.8 °F -18.4 °F 59% 30.31 in 10.0 mi NW 16.1 mph 23.0 mph N/A   Overcast
7:55 AM -9.4 °F -31.4 °F -20.2 °F 59% 30.32 in 10.0 mi NW 15.0 mph - N/A   Overcast
8:15 AM -9.4 °F -32.1 °F -20.2 °F 59% 30.33 in 10.0 mi NW 16.1 mph - N/A   Overcast
8:35 AM -7.6 °F -27.5 °F -20.2 °F 54% 30.34 in 10.0 mi NW 12.7 mph 19.6 mph N/A   Scattered Clouds
8:55 AM -7.6 °F -31.1 °F -20.2 °F 54% 30.35 in 10.0 mi NW 18.4 mph - N/A   Mostly Cloudy
9:15 AM -7.6 °F -29.1 °F -18.4 °F 59% 30.36 in 10.0 mi NNW 15.0 mph 24.2 mph N/A   Mostly Cloudy
9:35 AM -7.6 °F -30.5 °F -18.4 °F 59% 30.37 in 9.0 mi NW 17.3 mph 24.2 mph N/A   Mostly Cloudy
9:55 AM -7.6 °F -31.1 °F -18.4 °F 59% 30.38 in 10.0 mi NW 18.4 mph 24.2 mph N/A   Mostly Cloudy
10:15 AM -7.6 °F -29.8 °F -20.2 °F 54% 30.39 in 8.0 mi NW 16.1 mph 23.0 mph N/A   Mostly Cloudy
10:35 AM -7.6 °F -31.1 °F -18.4 °F 59% 30.39 in 9.0 mi NW 18.4 mph 27.6 mph N/A   Mostly Cloudy
10:55 AM -7.6 °F -30.5 °F -20.2 °F 54% 30.40 in 10.0 mi NNW 17.3 mph 23.0 mph N/A   Mostly Cloudy
11:15 AM -7.6 °F -27.5 °F -16.6 °F 65% 30.41 in 2.5 mi NW 12.7 mph 20.7 mph N/A   Haze
11:35 AM -5.8 °F -28.8 °F -18.4 °F 55% 30.40 in 10.0 mi NW 18.4 mph - N/A   Mostly Cloudy
11:55 AM -5.8 °F -28.2 °F -16.6 °F 60% 30.40 in 10.0 mi NW 17.3 mph - N/A   Overcast
12:15 PM -4.0 °F -25.8 °F -16.6 °F 55% 30.40 in 10.0 mi NNW 17.3 mph - N/A   Overcast
12:35 PM -4.0 °F -25.2 °F -16.6 °F 55% 30.40 in 7.0 mi NW 16.1 mph - N/A   Mostly Cloudy
12:55 PM -4.0 °F -25.2 °F -16.6 °F 55% 30.39 in 10.0 mi NNW 16.1 mph 23.0 mph N/A   Mostly Cloudy
1:15 PM -4.0 °F -24.5 °F -14.8 °F 60% 30.38 in 4.0 mi NW 15.0 mph 20.7 mph N/A   Haze
1:35 PM -4.0 °F -24.5 °F -14.8 °F 60% 30.38 in 8.0 mi NNW 15.0 mph 20.7 mph N/A   Mostly Cloudy
1:55 PM -2.2 °F -21.5 °F -14.8 °F 55% 30.37 in 7.0 mi NW 13.8 mph 20.7 mph N/A   Mostly Cloudy
2:15 PM -2.2 °F -22.2 °F -13.0 °F 60% 30.37 in 8.0 mi NW 15.0 mph - N/A   Mostly Cloudy
2:35 PM -2.2 °F -19.9 °F -13.0 °F 60% 30.37 in 9.0 mi NW 11.5 mph 18.4 mph N/A   Mostly Cloudy
2:55 PM -2.2 °F -22.2 °F -13.0 °F 60% 30.37 in 8.0 mi NNW 15.0 mph - N/A   Mostly Cloudy
3:15 PM -0.4 °F -19.9 °F -13.0 °F 55% 30.38 in 8.0 mi NW 15.0 mph - N/A   Mostly Cloudy
3:35 PM -0.4 °F -18.4 °F -13.0 °F 55% 30.38 in 10.0 mi NW 12.7 mph - N/A   Mostly Cloudy
3:55 PM -0.4 °F -18.4 °F -13.0 °F 55% 30.38 in 10.0 mi NNW 12.7 mph - N/A   Overcast
4:15 PM -0.4 °F -18.4 °F -13.0 °F 55% 30.39 in 10.0 mi NW 12.7 mph - N/A   Overcast
4:35 PM -0.4 °F -16.7 °F -13.0 °F 55% 30.39 in 9.0 mi NW 10.4 mph - N/A   Overcast
4:55 PM -2.2 °F -18.9 °F -14.8 °F 55% 30.39 in - NW 10.4 mph - N/A   Mostly Cloudy
5:15 PM -2.2 °F -18.0 °F -13.0 °F 60% 30.39 in 10.0 mi NW 9.2 mph - N/A   Mostly Cloudy
5:35 PM -2.2 °F -18.0 °F -13.0 °F 60% 30.39 in 10.0 mi NW 9.2 mph - N/A   Mostly Cloudy
5:55 PM -4.0 °F -19.0 °F -14.8 °F 60% 30.40 in 10.0 mi NW 8.1 mph - N/A   Partly Cloudy
6:15 PM -4.0 °F -19.0 °F -14.8 °F 60% 30.40 in 10.0 mi NW 8.1 mph - N/A   Clear
6:35 PM -4.0 °F -17.8 °F -14.8 °F 60% 30.40 in 10.0 mi NW 6.9 mph - N/A   Scattered Clouds
6:55 PM -5.8 °F -16.7 °F -14.8 °F 65% 30.40 in 10.0 mi WNW 4.6 mph - N/A   Mostly Cloudy
7:15 PM -5.8 °F -21.2 °F -14.8 °F 65% 30.40 in 10.0 mi NW 8.1 mph - N/A   Partly Cloudy
7:35 PM -5.8 °F -19.9 °F -14.8 °F 65% 30.40 in 10.0 mi NW 6.9 mph - N/A   Clear
7:55 PM -5.8 °F -19.9 °F -14.8 °F 65% 30.40 in 10.0 mi NW 6.9 mph - N/A   Clear
8:15 PM -5.8 °F -21.2 °F -14.8 °F 65% 30.40 in 10.0 mi NW 8.1 mph - N/A   Clear
8:35 PM -7.6 °F -22.1 °F -16.6 °F 65% 30.40 in 10.0 mi NW 6.9 mph - N/A   Clear
8:55 PM -7.6 °F -20.6 °F -16.6 °F 65% 30.40 in 10.0 mi NW 5.8 mph - N/A   Clear
9:15 PM -7.6 °F -18.8 °F -16.6 °F 65% 30.40 in 10.0 mi West 4.6 mph - N/A   Clear
9:35 PM -9.4 °F -20.9 °F -16.6 °F 71% 30.39 in 10.0 mi WNW 4.6 mph - N/A   Clear
9:55 PM -9.4 °F -20.9 °F -16.6 °F 71% 30.39 in 10.0 mi West 4.6 mph - N/A   Clear
10:15 PM -9.4 °F -22.7 °F -16.6 °F 71% 30.39 in 10.0 mi West 5.8 mph - N/A   Clear
10:35 PM -7.6 °F -18.8 °F -16.6 °F 65% 30.38 in 10.0 mi NW 4.6 mph - N/A   Clear
10:55 PM -7.6 °F -20.6 °F -16.6 °F 65% 30.38 in 10.0 mi WNW 5.8 mph - N/A   Clear
11:15 PM -9.4 °F -20.9 °F -16.6 °F 71% 30.37 in 10.0 mi West 4.6 mph - N/A   Clear
11:35 PM -9.4 °F -22.7 °F -18.4 °F 65% 30.37 in 10.0 mi West 5.8 mph - N/A   Clear
11:55 PM -9.4 °F -20.9 °F -18.4 °F 65% 30.37 in 10.0 mi SW 4.6 mph - N/A   Clear